Regional Weather Roundup
Issued by NWS

Home | Current Version | Previous Version | Text Only | Print | Product List | Glossary Off
Versions: 1 2 3 4 5 6 7 8 9 10 11 12 13 14 15 16 17 18 19 20 21 22 23 24 25 26 27 28 29 30 31 32 33 34 35 36 37 38 39 40 41 42 43 44 45 46 47 48 49 50

297
ASUS45 KCYS 010210
RWRWY

WYOMING REGIONAL WEATHER ROUNDUP
NATIONAL WEATHER SERVICE CHEYENNE WY
800 PM MDT SUN APR 30 2017

NOTE:  "FAIR" INDICATES FEW OR NO CLOUDS BELOW 12,000 FEET
WITH NO SIGNIFICANT WEATHER AND/OR OBSTRUCTIONS TO VISIBILITY.

WYZ001-010300-
YELLOWSTONE NATIONAL PARK

CITY           SKY/WX    TMP DP  RH WIND       PRES   REMARKS
LK YELLOWSTONE   N/A     36  29  75 VRB3      30.04F
W YELLOWSTONE  NOT AVBL

$$
WYZ002>013-054>058-071-098>099-010300-
NORTHERN WYOMING

CITY           SKY/WX    TMP DP  RH WIND       PRES   REMARKS
JACKSON        MOCLDY    45  32  61 S12       30.04S
CODY           MOCLDY    53  28  38 W10G21    29.93R
GREYBULL       FAIR      58  32  37 NW5       29.87R
WORLAND        CLOUDY    57  33  40 W8        29.89R
SHERIDAN       CLOUDY    50  39  66 W12       29.90R
BUFFALO        CLOUDY    44  30  57 W7        29.92S
GILLETTE       FAIR      48  34  58 NW9       29.89R
HULETT         MOCLDY    52  28  40 N6        29.88S
NEWCASTLE      FAIR      52  23  32 NW13G20   29.87S

$$
WYZ014>020-022>026-101>103-010300-
CENTRAL WYOMING

CITY           SKY/WX    TMP DP  RH WIND       PRES   REMARKS
BIG PINEY      CLOUDY    42  30  62 NW6       30.07S
PINEDALE       CLOUDY    41  28  60 W9        30.07S
DUBOIS         CLOUDY    41  27  56 NW18      30.00S
LANDER         CLOUDY    51  30  44 SW6       29.92R
RIVERTON       CLOUDY    51  32  48 SW3       29.93S
CASPER         FAIR      47  31  53 W8        29.91S
DOUGLAS        FAIR      49  26  41 N9        29.90R

$$
WYZ021-027>030-104>119-010300-
SOUTHERN WYOMING

CITY           SKY/WX    TMP DP  RH WIND       PRES   REMARKS
EVANSTON       MOCLDY    43  27  53 W12       30.12S
KEMMERER         N/A     41  30  65 W13       30.10S
FORT BRIDGER   MOCLDY    44  28  54 SW10G21   30.12F
ROCK SPRINGS   CLOUDY    46  28  49 W15G28    30.05R
DIXON            N/A     50  27  40 W17       30.03S
RAWLINS        FAIR      43  30  60 NW6       29.97S
SARATOGA       CLOUDY    46  23  39 NW12G24   29.99R
LARAMIE        FAIR      42  21  43 NW16      29.94R
CHEYENNE       FAIR      49  18  29 NW14G23   29.89R
TORRINGTON     FAIR      52  22  30 N13       29.83S
PINE BLUFFS    FAIR      45  23  42 N9        29.86R

$$




USA.gov is the U.S. government's official web portal to all federal, state and local government web resources and services.